Regional Weather Roundup
Issued by NWS Sioux Falls, SD

Home | Current Version | Previous Version | Text Only | Print | Product List | Glossary On
Versions: 1 2 3 4 5 6 7 8 9 10 11 12 13 14 15 16 17 18 19 20 21 22 23 24 25 26 27 28 29 30 31 32 33 34 35 36 37 38 39 40 41 42 43 44 45 46 47 48 49 50
000
ASUS43 KFSD 212310
RWRFSD

WEATHER ROUNDUP FOR SE SOUTH DAKOTA/SW MINNESOTA/NW IOWA
NATIONAL WEATHER SERVICE SIOUX FALLS SD
500 PM CST SUN JAN 21 2018

NOTE: "FAIR" INDICATES FEW OR NO CLOUDS BELOW 12,000 FEET WITH NO
SIGNIFICANT WEATHER AND OR OBSTRUCTIONS TO VISIBILITY.


SDZ038>040-050-052>070-220000-
SOUTHEAST SOUTH DAKOTA

CITY           SKY/WX    TMP DP  RH WIND       PRES   REMARKS
BROOKINGS      CLOUDY    36  31  82 NE13G20   29.91R
CHAMBERLAIN    MIX PCPN  34  34 100 N12       29.95R WCI  25
HURON          CLOUDY    32  29  88 N13       29.96R WCI  22
MADISON        CLOUDY    34  34 100 NE20      29.90R WCI  22
MITCHELL       CLOUDY    35  33  92 N18       29.94R WCI  24
SIOUX FALLS    CLOUDY    36  32  85 NE17G29   29.88R
WINNER         LGT SNOW  33  31  92 N14       29.94R FOG     WCI  23
YANKTON        MOCLDY    38  28  67 N21G29    29.83
$$

MNZ071-072-080-081-089-090-097-098-220000-
SOUTHWEST MINNESOTA

CITY           SKY/WX    TMP DP  RH WIND       PRES   REMARKS
FAIRMONT       CLOUDY    38  31  76 NE9       29.88R
JACKSON        CLOUDY    36  32  87 N14       29.88R
LUVERNE        CLOUDY    34  30  86 NE17G24   29.87S WCI  23
MARSHALL       CLOUDY    34  29  82 N15       29.94F WCI  24
MONTEVIDEO     CLOUDY    34  30  86 NE12      29.97S WCI  25
PIPESTONE      CLOUDY    34  30  86 NE16G22   29.87S WCI  23
REDWOOD FALLS  CLOUDY    37  29  72 N10       29.93S
TRACY          CLOUDY    35  32  90 N12       29.91R WCI  26
WINDOM         CLOUDY    36  19  51 N13       29.89R
WORTHINGTON    CLOUDY    35  30  82 N18       29.87R WCI  24
$$

IAZ001>003-012>014-020>022-031-032-NEZ013-014-SDZ071-220000-
NORTHWEST IOWA

CITY           SKY/WX    TMP DP  RH WIND       PRES   REMARKS
CHEROKEE       CLOUDY    38  31  77 NE15G21   29.82R
DENISON        CLOUDY    36  36 100 NE17G23   29.77S FOG
ESTHERVILLE    CLOUDY    36  32  85 N15       29.85R
LE MARS        CLOUDY    41  30  65 NE17G25   29.81S
ORANGE CITY    CLOUDY    39  34  81 NE10G17   29.82F
SHELDON        CLOUDY    37  32  81 NE17      29.82S
SIOUX CITY     CLOUDY    40  29  64 NE17      29.79S
SPENCER        CLOUDY    39  31  72 NE16      29.84R
STORM LAKE     CLOUDY    36  34  93 NE18G25   29.79S FOG
$$

ABBREVIATIONS USED IN REMARKS
   TC - TEMPERATURE IN CELSIUS
  WCI - WIND CHILL INDEX
   HX - HEAT INDEX
  VSB - VISIBILITY





USA.gov is the U.S. government's official web portal to all federal, state and local government web resources and services.